www.pogodaiklimat.ru
ПОГОДА в Питтсбурге
Время
и дата
03:42 18.07
03:53 18.07
04:32 18.07
04:53 18.07
05:00 18.07
05:14 18.07
05:49 18.07
05:53 18.07
06:53 18.07
07:14 18.07
07:53 18.07
08:53 18.07
09:53 18.07
10:00 18.07
10:53 18.07
11:10 18.07
11:36 18.07
11:53 18.07
12:53 18.07
13:53 18.07
14:53 18.07
15:53 18.07
16:53 18.07
17:53 18.07
18:53 18.07
19:53 18.07
20:53 18.07
21:53 18.07
22:53 18.07
23:53 18.07
00:53 19.07
01:53 19.07
02:53 19.07
03:53 19.07
04:53 19.07
05:53 19.07
06:53 19.07
07:53 19.07
08:53 19.07
09:53 19.07
10:53 19.07
11:53 19.07
12:53 19.07
13:53 19.07
14:53 19.07
15:53 19.07
16:53 19.07
17:53 19.07
Ветер
(напр.,м/с)
Видим. Явления Облачность Т
(С)
Тd
(С)
f
(%)
Тe
(С)
Тes
(С)
Комфортность P
(гПа)
Po
(гПа)
Тmin
(С)
Tmax
(С)
R
(мм)
R24
(мм)
S
(см)
штиль 0 400 м туман ?/? +20.6 +19.4 93 +25 +25 комфорт 969.0
штиль 0 400 м туман ?/? +20.6 +19.4 93 +25 +25 комфорт 1014.0 969.3
штиль 0 400 м туман ?/? +20.6 +18.9 90 +24 +24 комфорт 969.3
штиль 0 400 м туман 10/8 60 m
[Ac]
+20.6 +18.9 90 +24 +24 комфорт 1014.5 969.6
штиль 0 800 м туман 10/8 120 m
[Ac]
+20.0 +18.9 93 +23 +23 комфорт 969.6
штиль 0 400 м туман 8/8 120 m
[Ac]
+20.0 +18.9 93 +23 +23 комфорт 970.0
нст 2 11 км 2/2 120 м +20.0 +18.0 88 +24 +24 комфорт 970.0
С 2 11 км 2/2 120 м +20.0 +18.9 93 +24 +24 комфорт 1015.1 970.3
С 3 8 км мгла ясно +20.6 +17.8 84 +25 +25 комфорт 1015.9 970.9 +20.0 +20.6 16.5
нст 2 8 км дымка 2/2 210 м +20.6 +18.3 87 +25 +27 комфорт 970.9
нст 3 11 км 8/8 240 м +21.7 +18.3 81 +26 +27 душно 1016.6 971.6
10 км мгла 8/8 270 м +21.1 +17.8 81 +25 +27 комфорт 1016.8 971.9
С 3 16 км мгла 8/8 270 м +22.8 +17.2 71 +28 +30 душно 1017.1 972.2
нст 2 16 км мгла 5/5 510 м +22.2 +17.2 73 +27 +34 душно 972.2
16 км мгла 5/5 780 м +23.9 +16.7 64 +27 +37 жарко 1017.4 972.2
нст 3 16 км мгла 8/8 840 м +23.3 +15.6 62 +28 +31 душно 972.5
нст 2 16 км мгла 8/8 840 м +25.0 +16.1 58 +28 +32 жарко 972.5
нст 2 16 км мгла 8/8 990 м +25.0 +15.6 56 +28 +32 жарко 1017.4 972.5
штиль 0 16 км мгла 8/8 1050 м +25.6 +15.6 54 +29 +34 душно 1017.0 972.2 +20.6 +26.1
С 3 16 км мгла 5/5 1950 м +25.6 +15.0 52 +28 +36 жарко 1016.9 971.9
нст 3 16 км мгла 5/5 1500 м +26.7 +13.9 45 +29 +36 жарко 1016.6 971.9
нст 3
{8}
16 км мгла 2/2 1500 м +27.2 +12.8 41 +29 +38 жарко 1016.5 971.6
СЗ 5
{8}
16 км ясно +26.7 +12.8 42 +28 +33 жарко 1016.4 971.6
СЗ 5 16 км 2/2 1650 м +26.1 +12.2 42 +28 +30 жарко 1016.5 971.6
С 4
{8}
16 км 2/2 1500 м +23.9 +12.8 50 +26 +27 жарко 1017.3 972.2 +23.9 +27.2
С 4
{10}
16 км ясно +21.7 +12.2 55 +24 +24 комфорт 1018.0 972.9
С 3 16 км ясно +20.6 +11.7 57 +23 +23 комфорт 1019.0 973.8
С 3 16 км ясно +19.4 +11.7 61 +21 +21 комфорт 1019.5 974.5
С 3 16 км ясно +18.9 +11.7 63 +20 +20 1019.8 974.8
С 3 16 км ясно +17.8 +12.2 70 +18 +18 1020.4 975.1
С 2 16 км ясно +16.7 +12.2 75 +17 +17 1020.3 975.1 +16.7 +23.9
С 2 16 км ясно +16.7 +12.2 75 +17 +17 1020.1 974.8
С 2 16 км ясно +16.1 +12.2 78 +16 +16 1020.2 975.1
С 2 16 км ясно +15.6 +12.2 80 +16 +16 1020.2 975.1
С 2 16 км ясно +14.4 +12.2 87 +14 +14 1020.6 975.5
нст 2 16 км ясно +16.1 +12.2 78 +16 +16 1021.2 975.8
С 2 16 км ясно +17.8 +13.3 75 +18 +19 1021.7 976.4 +14.4 +17.8
В 2 16 км ясно +18.9 +12.8 68 +20 +23 1022.3 977.1
нст 2 16 км ясно +21.1 +12.8 59 +23 +30 комфорт 1022.2 976.8
нст 2 16 км ясно +22.8 +12.8 53 +26 +36 жарко 1022.1 976.8
нст 2 16 км ясно +24.4 +12.2 46 +26 +41 жарко 1021.7 976.4
16 км ясно +25.6 +12.8 45 +27 +52 опасность
солнечного
удара
1021.3 976.1
штиль 0 16 км ясно +26.1 +11.7 41 +27 +54 опасность
солнечного
удара
1020.8 975.8 +17.8 +27.2
нст 2 16 км 5/5 1950 м +26.7 +10.6 36 +27 +37 жарко 1020.6 975.5
З 3 16 км 2/2 1950 м +28.3 +10.6 33 +29 +40 жарко 1020.0 974.8
штиль 0 16 км ясно +28.3 +10.0 32 +29 +47 жарко 1019.2 974.2
СВ 3 16 км ясно +28.3 +10.0 32 +29 +36 жарко 1018.7 973.5
С 3 16 км ясно +27.8 +10.0 33 +28 +32 жарко 1018.6 973.5
Местоположение метеостанции Allegheny County Airport: широта 40.3547 долгота -79.9217 высота над уровнем моря 382 м.
В архиве по умолчанию представлена погода в Питтсбурге за последние 1-2 суток. Обновление информации о фактической погоде в базе происходит ежечасно! Архивные данные за месяц целиком и за предыдущие месяцы Вы можете получить, выбрав интересующий диапазон дат из раскрывающегося списка и нажав кнопку "Ввод!".
Внимание! Архив погоды МЕТАР в базе сайта по станциям, не включенным в климатический монитор, хранится не более 60 дней. Нет смысла пытаться выбрать более раннюю дату.
*Определитесь, кто Вы:
Внимание! Время в таблицах - местное (без учета летнего времени). Для получения всемирного времени необходимо вычесть поправку, которая равна -5 ч.
Смотрите также архив погоды в соседних городах и на ближайших метеорологических станциях:
Партнеры нашего сайта:      
Пояснения к столбцам:
  • Ветер - указаны скорость ветра в м/с - средняя за 10 мин, порывы в срок и между сроками (в фигурных скобках) и направление, откуда дует ветер: С - северный,
  • СВ - северо-восточный, В - восточный, ЮВ - юго-восточный, Ю - южный, ЮЗ - юго-западный, З - западный, СЗ - северо-западный.
  • Видимость - горизонтальная дальность видимости в метрах или километрах. При видимости от 1 до 10 км при отсутствии осадков обычно наблюдается дымка, при ухудшении видимости до 1 км и менее - туман. В сухую погоду видимость может ухудшаться дымом, пылью или мглою.
  • Явления - указаны атмосферные явления, наблюдавшиеся в срок или в последний час перед сроком; фигурными скобками обозначены явления, наблюдавшиеся между сроками (за 1-3 часа до срока); квадратными скобками обозначены град или гололедные отложения с указанием их диаметра в мм.
  • Облачность - указаны через наклонную черту общая и нижняя облачность в баллах и высота нижней границы облаков в метрах; квадратными скобками обозначены формы облаков: Ci - перистые, Cs - перисто-слоистые, Cc - перисто-кучевые, Ac - высококучевые, As - высокослоистые, Sc - слоисто-кучевые, Ns - слоисто-дождевые, Cu - кучевые, Cb - кучево-дождевые. Подробнее классификацию облаков см. в Атласе облаков (PDF).
  • T - Температура воздуха - температура, измеренная на высоте 2 м над землей.
  • Td - Температура точки росы - температура, при понижении до которой содержащийся в воздухе водяной пар достигнет насыщения.
  • f - Относительная влажность воздуха - влажноcть воздуха, измеренная на высоте 2 м над землей.
  • Te - Эффективная температура - температура, которую ощущает одетый по сезону человек в тени. Характеристика душности погоды. При расчете учитывается влияние влажности воздуха и скорости ветра на теплоощущения человека.
  • Tes - Эффективная температура на солнце - температура, которую ощущает человек, с поправкой на солнечный нагрев. Характеристика знойности погоды. Зависит от высоты солнца над горизонтом, облачности и скорости ветра. Ночью, в пасмурную погоду, а также при ветре 12 м/с и более поправка равна нулю.
  • P - Атмосферное давление - приведенное к уровню моря атмосферное давление.
  • Po - Атмосферное давление - измеренное на уровне метеостанции атмосферное давление.
  • Tmin - Минимальная температура - минимум температуры воздуха на высоте 2 м над землей.
  • Tmax - Максимальная температура - максимум температуры воздуха на высоте 2 м над землей.
  • R - Количество осадков - Количество выпавших осадков за период времени, мм. При наведении курсора мыши на число - период времени, за который выпало указанное количество осадков.
  • R24 - Количество осадков - Количество выпавших осадков за 24 часа, мм.
  • S - Снежный покров - Высота снежного покрова, см. При наведении курсора мыши на число - состояние снежного покрова и степень покрытия местности в баллах.